Change the Weather History Date:

Tuesday, January 28, 2014

  Actual Average Record
Temperature  
Mean Temperature 26 °F -  
Max Temperature 36 °F 52 °F 75 °F (1974)
Min Temperature 17 °F 31 °F 9 °F (1986)
Degree Days  
Heating Degree Days 38    
Moisture  
Dew Point 9 °F    
Average Humidity 57    
Maximum Humidity 84    
Minimum Humidity 30    
Precipitation  
Precipitation 0.19 in - - ()
Sea Level Pressure  
Sea Level Pressure 30.25 in    
Wind  
Wind Speed 12 mph (NNE)    
Max Wind Speed 16 mph    
Max Gust Speed 22 mph    
Visibility 6 miles    
Events Snow    
Averages and records for this station are not official NWS values.
T = Trace of Precipitation, MM = Missing Value Source: NWS Daily Summary

Daily Weather History Graph

Daily Weather History Graph

Search for Another Location

Airport or City:

Trip Planner

Search our weather history database for the weather conditions in past years. The results will help you decide how hot, cold, wet, or windy it might be!

Date:

Astronomy

Jan. 28, 2014 Rise Set
Actual Time 7:14 AM EST 5:34 PM EST
Civil Twilight 6:47 AM EST 6:01 PM EST
Nautical Twilight 6:16 AM EST 6:32 PM EST
Astronomical Twilight 5:46 AM EST 7:02 PM EST
Moon 4:53 AM EST (1/28) 3:23 PM EST (1/28)
Length of Visible Light 11h 14m
Length of Day
10h 19m
Waning Crescent, 7% of the Moon is Illuminated
Jan 28
Waning Crescent
Jan 30
New
Feb 6
First Quarter
Feb 14
Full
Feb 22
Last Quarter

Hourly Weather History & Observations

Time (EST) Temp. Windchill Dew Point Humidity Pressure Visibility Wind Dir Wind Speed Gust Speed Precip Events Conditions
12:53 AM 36.0 °F 27.1 °F 16.0 °F 44% 30.12 in 10.0 mi NNE 13.8 mph - N/A   Clear
1:53 AM 32.0 °F 23.0 °F 10.9 °F 42% 30.16 in 10.0 mi North 11.5 mph - N/A   Clear
2:53 AM 30.0 °F 21.7 °F 8.1 °F 40% 30.18 in 10.0 mi NNE 9.2 mph - N/A   Clear
3:53 AM 28.9 °F 19.2 °F 9.0 °F 43% 30.20 in 10.0 mi NNE 11.5 mph - N/A   Clear
4:53 AM 28.9 °F 19.2 °F 7.0 °F 40% 30.22 in 10.0 mi NNE 11.5 mph - N/A   Clear
5:53 AM 28.9 °F 18.2 °F 6.1 °F 38% 30.26 in 10.0 mi NNE 13.8 mph - N/A   Clear
6:53 AM 28.0 °F 17.0 °F 3.9 °F 36% 30.29 in 10.0 mi NNE 13.8 mph - N/A   Clear
7:53 AM 28.0 °F 19.3 °F 3.0 °F 34% 30.31 in 10.0 mi NNE 9.2 mph - N/A   Clear
8:53 AM 28.0 °F 16.5 °F 1.9 °F 33% 30.34 in 10.0 mi North 15.0 mph - N/A   Partly Cloudy
9:53 AM 28.0 °F 17.0 °F 1.0 °F 31% 30.34 in 10.0 mi NE 13.8 mph 19.6 mph N/A   Scattered Clouds
10:53 AM 28.0 °F 18.1 °F 3.0 °F 34% 30.34 in 10.0 mi NE 11.5 mph - N/A   Mostly Cloudy
11:53 AM 28.9 °F 18.2 °F 3.0 °F 33% 30.34 in 10.0 mi NNE 13.8 mph 21.9 mph N/A   Mostly Cloudy
12:53 PM 30.0 °F 19.5 °F 1.9 °F 30% 30.29 in 10.0 mi NNE 13.8 mph 20.7 mph N/A   Overcast
1:53 PM 28.0 °F 18.1 °F 1.9 °F 33% 30.27 in 10.0 mi NE 11.5 mph - N/A   Overcast
2:53 PM 27.0 °F 14.7 °F 1.9 °F 34% 30.28 in 10.0 mi NNE 16.1 mph - N/A   Overcast
3:53 PM 26.1 °F 14.5 °F 1.0 °F 34% 30.27 in 10.0 mi North 13.8 mph - N/A   Overcast
4:53 PM 26.1 °F 15.0 °F 1.0 °F 34% 30.26 in 10.0 mi NNE 12.7 mph - N/A   Overcast
5:53 PM 21.9 °F 9.2 °F 8.1 °F 55% 30.27 in 3.0 mi North 13.8 mph - 0.00 in Snow Light Snow
6:00 PM 21.9 °F 9.8 °F 8.1 °F 55% 30.25 in 2.5 mi North 12.7 mph - 0.00 in Snow Light Snow
6:12 PM 19.9 °F 8.6 °F 12.0 °F 71% 30.25 in 1.2 mi NE 10.4 mph - 0.00 in Snow Light Snow
6:30 PM 19.0 °F 6.8 °F 12.9 °F 77% 30.26 in 0.8 mi NNE 11.5 mph 17.3 mph 0.00 in Snow Light Snow
6:46 PM 19.0 °F 6.1 °F 14.0 °F 81% 30.26 in 1.0 mi NNE 12.7 mph - 0.00 in Snow Light Snow
6:53 PM 19.0 °F 6.1 °F 14.0 °F 81% 30.26 in 1.0 mi NNE 12.7 mph - 0.00 in Snow Light Snow
7:28 PM 19.0 °F 5.0 °F 14.0 °F 81% 30.24 in 1.5 mi North 15.0 mph - 0.01 in Snow Light Snow
7:39 PM 19.0 °F 6.1 °F 14.0 °F 81% 30.24 in 1.2 mi North 12.7 mph - 0.02 in Snow Light Snow
7:53 PM 18.0 °F 5.4 °F 14.0 °F 84% 30.25 in 1.8 mi North 11.5 mph - 0.03 in Snow Light Snow
8:53 PM 18.0 °F 5.4 °F 12.9 °F 81% 30.25 in 1.0 mi North 11.5 mph - 0.05 in Snow Light Snow
9:00 PM 18.0 °F 6.1 °F 12.9 °F 81% 30.24 in 1.0 mi North 10.4 mph - 0.01 in Snow Light Snow
9:28 PM 18.0 °F 5.4 °F 14.0 °F 84% 30.23 in 0.8 mi NNE 11.5 mph - 0.05 in Snow Light Snow
9:43 PM 17.1 °F 3.0 °F 12.9 °F 84% 30.23 in 1.2 mi North 13.8 mph 20.7 mph 0.06 in Snow Light Snow
9:53 PM 17.1 °F 3.0 °F 12.9 °F 84% 30.23 in 1.0 mi North 13.8 mph - 0.07 in Snow Light Snow
10:53 PM 17.1 °F 3.6 °F 12.9 °F 84% 30.22 in 1.2 mi North 12.7 mph - 0.01 in Snow Light Snow
11:13 PM 17.1 °F 5.8 °F 12.9 °F 84% 30.22 in 1.0 mi North 9.2 mph - 0.01 in Snow Light Snow
11:53 PM 17.1 °F 5.0 °F 12.0 °F 81% 30.22 in 1.0 mi North 10.4 mph - 0.03 in Snow Light Snow